[[{"header":{"parameterUnit":"m.s-1","parameterCategory":1,"la1":30.2992,"la2":30.254,"lo1":-89.0895,"lo2":-89.0443,"dy":0.0025,"dx":0.0025,"nx":19,"ny":19,"refTime":"2026-03-31T09:00:00:Z","depth":0,"parameterNumber":2,"parameterNumberName":"U-component_of_WINDS"},"data":[0,0,0,-4.3984,-4.399,-4.4265,-4.4267,-4.4621,-4.4625,0,0,0,0,0,0,0,0,0,0,0,-4.3901,-4.3903,-4.3983,-4.399,-4.4265,-4.4267,-4.4621,-4.4625,0,0,0,0,0,0,0,0,0,0,0,-4.39,-4.3903,-4.3906,-4.3991,-4.4265,-4.4267,-4.462,-4.4412,0,0,0,0,0,0,0,0,0,0,-4.4144,-4.4066,-4.3902,-4.3906,-4.3993,-4.4265,-4.4267,-4.4402,-4.4425,-4.4497,0,-4.4558,0,-4.4597,-4.4648,-4.4649,0,0,0,-4.3992,-4.4046,-4.4122,-4.3906,-4.3995,-4.4264,-4.4142,-4.4415,-4.4441,-4.4527,-4.4563,-4.4576,-4.4603,-4.465,-4.4652,-4.5056,-4.5058,0,0,-4.3977,-4.395,-4.4104,-4.4138,-4.4093,-4.4133,-4.415,-4.4431,-4.4469,-4.4564,-4.4585,-4.4608,-4.4653,-4.4656,-4.5055,-4.5057,0,0,0,-4.3932,-4.394,-4.4008,-4.4124,-4.4173,-4.4141,-4.4161,-4.4456,-4.4481,-4.4588,-4.4613,-4.4655,-4.4659,-4.5053,-4.5055,-4.5118,0,0,0,-4.3923,-4.3913,-4.4001,-4.3988,-4.4168,-4.4318,-4.418,-4.4461,-4.4494,-4.4611,-4.4655,-4.4663,-4.5051,-4.5054,-4.5112,-4.5152,0,0,0,-4.3884,-4.3909,-4.3948,-4.3986,-4.4103,-4.4314,-4.4354,-4.4469,-4.4509,-4.465,-4.4664,-4.5049,-4.5054,-4.5107,-4.5144,-4.5251,0,0,0,-4.3835,-4.4001,-4.3949,-4.4144,-4.4101,-4.435,-4.4353,-4.454,-4.4669,-4.4657,-4.5051,-4.5055,-4.5105,-4.5138,-4.5245,-4.5335,-4.5371,0,0,-4.403,-4.4023,-4.4141,-4.4102,-4.4353,-4.431,-4.4573,-4.4716,-4.4755,-4.4954,-4.4965,-4.5114,-4.5143,-4.525,-4.5579,-4.5607,0,0,0,-4.4194,-4.4277,-4.435,-4.447,-4.4583,-4.4684,-4.479,-4.4844,-4.5015,-4.4851,-4.5183,-4.5201,-4.5265,-4.5309,-4.5333,-4.539,-4.5075,-4.5074,-4.5074,-4.4431,-4.4471,-4.4668,-4.4742,-4.4859,-4.4968,-4.5067,-4.5159,-4.5165,-4.5244,-4.5302,-4.5497,-4.5549,-4.5566,-4.5625,-4.5355,-4.5355,-4.5355,-4.5355,-4.472,-4.4845,-4.4851,-4.5043,-4.5086,-4.525,-4.5363,-4.5362,-4.5523,-4.5456,-4.5514,-4.5437,-4.5596,-4.5649,-4.536,-4.536,-4.5359,-4.5358,-4.5358,-4.4879,-4.4946,-4.5008,-4.5188,-4.5322,-4.5393,-4.5546,-4.558,-4.5614,-4.5671,-4.5738,-4.5737,-4.574,-4.5701,-4.5701,-4.5702,-4.5703,-4.5703,-4.5704,-4.5019,-4.5087,-4.5211,-4.5346,-4.5429,-4.5543,-4.5656,-4.5739,-4.5841,-4.5853,-4.5854,-4.5853,-4.5604,-4.5539,-4.5714,-4.5712,-4.5711,-4.571,-4.5709,-4.5296,-4.5239,-4.543,-4.5513,-4.5676,-4.5808,-4.585,-4.6018,-4.6092,-4.6167,-4.6156,-4.5965,-4.5961,-4.5943,-4.589,-4.6145,-4.6145,-4.6145,-4.6145,-4.5429,-4.5431,-4.5634,-4.5765,-4.5897,-4.5955,-4.6173,-4.6264,-4.6349,-4.6398,-4.6367,-4.6301,-4.628,-4.6289,-4.6263,-4.6214,-4.6546,-4.6546,-4.6547,-4.5602,-4.5618,-4.5795,-4.5875,-4.6006,-4.6119,-4.6325,-4.6477,-4.6563,-4.6564,-4.6438,-4.6421,-4.6314,-4.6277,-4.6272,-4.6231,-4.6142,0,0]},{"header":{"parameterUnit":"m.s-1","parameterCategory":1,"la1":30.2992,"la2":30.254,"lo1":-89.0895,"lo2":-89.0443,"dy":0.0025,"dx":0.0025,"nx":19,"ny":19,"refTime":"2026-03-31T09:00:00:Z","depth":0,"parameterNumber":3,"parameterNumberName":"V-component_of_WINDS"},"data":[0,0,0,3.0051,3.005,2.9992,2.9991,2.9941,2.9941,0,0,0,0,0,0,0,0,0,0,0,3.0081,3.0081,3.0051,3.005,2.9992,2.9991,2.9941,2.9941,0,0,0,0,0,0,0,0,0,0,0,3.0081,3.0081,3.0081,3.005,2.9992,2.9991,2.9941,2.9976,0,0,0,0,0,0,0,0,0,0,3.0029,3.007,3.0081,3.0081,3.0049,2.9992,2.9991,2.9978,2.9974,2.9977,0,2.9982,0,2.9961,2.9939,2.9939,0,0,0,3.004,3.0073,3.0045,3.0081,3.0049,2.9992,3.0015,2.9976,2.9972,2.9972,2.9981,2.9979,2.996,2.9938,2.9938,2.9987,2.9987,0,0,3.0043,3.0078,3.0048,3.0043,3.0053,3.0017,3.0013,2.9973,2.9985,2.9981,2.9977,2.9959,2.9938,2.9938,2.9986,2.9987,0,0,0,3.0059,3.0081,3.0053,3.0046,3.0034,3.0016,3.0011,2.9987,2.9975,2.9976,2.9959,2.9938,2.9938,2.9985,2.9986,3.0055,0,0,0,3.006,3.009,3.0055,3.0076,3.0035,3.0009,3.0027,2.9978,2.9972,2.9959,2.9938,2.9937,2.9984,2.9986,3.0051,3.0082,0,0,0,3.008,3.0092,3.0088,3.0078,3.0055,3.0009,2.9995,2.9976,2.9962,2.9939,2.9937,2.9984,2.9986,3.0048,3.0076,3.0106,0,0,0,3.0112,3.0149,3.009,3.0125,3.0055,3.0052,2.9994,2.999,2.9978,2.9938,2.9984,2.9986,3.0047,3.0073,3.0103,3.0137,3.0155,0,0,3.0179,3.0159,3.0176,3.0122,3.0138,3.0058,3.0084,3.004,3.0006,2.9995,2.9996,3.0053,3.0076,3.0105,3.024,3.0254,0,0,0,3.021,3.0223,3.022,3.021,3.0178,3.0153,3.0102,3.0086,3.0075,3.0008,3.007,3.0083,3.0098,3.0113,3.0125,3.0137,2.9994,2.9994,2.9994,3.0354,3.0309,3.0336,3.0284,3.0276,3.0224,3.0213,3.0183,3.0139,3.0155,3.0151,3.0239,3.0257,3.0266,3.0279,3.0165,3.0166,3.0166,3.0166,3.0449,3.0461,3.0403,3.0408,3.0361,3.0365,3.0317,3.0286,3.0284,3.0237,3.0248,3.0201,3.0283,3.0292,3.0171,3.017,3.0169,3.0169,3.0169,3.0539,3.0537,3.0517,3.05,3.0493,3.0439,3.0441,3.0397,3.0356,3.0367,3.036,3.0359,3.0353,3.0367,3.0367,3.0367,3.0368,3.0368,3.0368,3.0641,3.0616,3.0622,3.0592,3.0582,3.0562,3.0511,3.0499,3.0476,3.0444,3.0444,3.04,3.0299,3.0276,3.0373,3.0372,3.0371,3.0371,3.0371,3.0755,3.0722,3.0732,3.0721,3.0683,3.068,3.0624,3.0605,3.0589,3.0592,3.0546,3.0478,3.0454,3.0445,3.0425,3.0554,3.0554,3.0554,3.0554,3.0832,3.0816,3.0816,3.0802,3.0784,3.0735,3.0749,3.0711,3.0666,3.0654,3.0629,3.0599,3.059,3.0571,3.0559,3.0539,3.0696,3.0696,3.0696,3.09,3.088,3.09,3.0855,3.0822,3.0796,3.0809,3.0797,3.0739,3.0701,3.0644,3.0638,3.0588,3.0574,3.0535,3.0516,3.048,0,0]}]]